Station BUZM3 - Buzzards Bay, MA Image indicating link to RSS feed of recent meteorological observations for station BUZM3


Conditions at BUZM3 as of
(10:00 am EDT)
1400 GMT on 04/16/2024:
     

Click on the graph icon in the table below to see a time series plot of the last five days of that observation.

5-day plot - Wind Direction Wind Direction (WDIR):WNW ( 300 deg true )
5-day plot - Wind Speed Wind Speed (WSPD): 9 kts
5-day plot - Wind Gust Wind Gust (GST): 10 kts
5-day plot - Atmospheric Pressure Atmospheric Pressure (PRES):30.10 in
5-day plot - Pressure Tendency Pressure Tendency (PTDY):+0.04 in ( Rising )
5-day plot - Air Temperature Air Temperature (ATMP): 53.4 °F
5-day plot - Wind Chill Wind Chill (CHILL): 50.2 °F
5-day plot - Wind Speed at 10 Meters Wind Speed at 10 meters (WSPD10M): 10 kts
5-day plot - Wind Speed at 20 Meters Wind Speed at 20 meters (WSPD20M): 10 kts
5-day plot -  Wind Speed, Wind Gust and Atmospheric Pressure Combined plot of Wind Speed, Gust, and Air Pressure
Continuous Winds
TIME
(EDT)
5-day plot - Wind Direction WDIR 5-day plot - Wind Speed WSPD
10:00 amWNW ( 303 deg ) 9 kts
9:50 amWNW ( 300 deg ) 8 kts
9:40 amWNW ( 301 deg ) 9 kts
9:30 amNW ( 304 deg ) 10 kts
9:20 amNW ( 305 deg ) 10 kts
9:10 amWNW ( 298 deg ) 10 kts
 
Peak gust during the measurement hour
TIME
(EDT)
5-day plot - Gust Direction GDR 5-day plot - Gust Speed GST
9:21 amNW ( 310 deg ) 11 kts
Previous observations
TIME
(EDT)
5-day plot - Wind Direction
WDIR
 
5-day plot - Wind Speed
WSPD
kts
5-day plot - Wind Gust
GST
kts
5-day plot - Wave Height
WVHT
ft
5-day plot - Dominant Wave Period
DPD
sec
5-day plot - Average Wave Period
APD
sec
5-day plot - Mean Wave Direction
MWD
 
5-day plot - Atmospheric Pressure
PRES
in
5-day plot - Pressure Tendency
PTDY
in
5-day plot - Air Temperature
ATMP
°F
5-day plot - Water Temperature
WTMP
°F
5-day plot - Dew Point
DEWP
°F
5-day plot - Salinity
SAL
psu
5-day plot - Visibility
VIS
nmi
5-day plot - Tide (above MLLW)
TIDE
ft
2024-04-16 09:00 amWNW 9 10----30.08+0.04 52.9-----
2024-04-16 08:00 am NW 10 10----30.08+0.07 52.7-----
2024-04-16 07:00 am NW 12 12----30.06+0.05 52.5-----
2024-04-16 06:00 amWNW 11 11----30.04+0.05 51.4-----
2024-04-16 05:00 amWNW 10 10----30.01+0.02 50.7-----
2024-04-16 04:00 am W 5 6----30.01+0.04 50.5-----
2024-04-16 03:00 am N 3 3----29.99+0.02 51.3-----
2024-04-16 02:00 am N 6 6----29.99+0.03 49.6-----
2024-04-16 01:00 amENE 13 13----29.96+0.02 49.8-----
2024-04-16 12:00 am NE 11 11----29.97+0.05------
2024-04-15 11:00 pm NE 17 18----29.96+0.08------
2024-04-15 10:00 pmNNE 7 8----29.94+0.11 60.3-----
2024-04-15 09:00 pm W 5 6----29.91+0.09------
2024-04-15 08:00 pm NW 13 15----29.88+0.08 54.9-----
2024-04-15 07:00 pm W 11 12----29.84+0.04 50.9-----
2024-04-15 06:00 pm SW 17 17----29.82+0.02 51.3-----
2024-04-15 05:00 pm SW 13 14----29.80+0.00 50.0-----
2024-04-15 04:00 pmSSW 13 14----29.80+0.00 49.1-----
2024-04-15 03:00 pmSSW 16 17----29.80-0.02 47.8-----
2024-04-15 02:00 pmSSW 16 17----29.81-0.02 48.9-----
2024-04-15 01:00 pm S 8 10----29.81-0.03 52.0-----
2024-04-15 12:00 pm W 3 3----29.82-0.01 57.9-----
2024-04-15 11:00 amWNW 10 10----29.83+0.02 54.1-----
2024-04-15 10:00 amWNW 8 8----29.83+0.04 49.3-----